Location: New York
(40.7127°N, 74.0060°W)
Time: 17:45:45
(UTC-04:00)

UNISAT 6 - Pass Details

Date: 03 May 2024
Orbit: 593 x 667 km, 97.7° (Epoch: 27 May)

Event Time Altitude Azimuth Distance (km) Brightness Sun altitude
Rises 03:31:24 0° 117° (ESE) 2,876 ? -22.5°
Reaches altitude 10° 03:34:48 10° 88° (E) 1,960 ? -22.1°
Maximum altitude 03:36:33 12° 64° (ENE) 1,802 ? -21.9°
Drops below altitude 10° 03:38:18 10° 39° (NE) 1,952 ? -21.7°
Sets 03:41:39 0° 10° (N) 2,850 ? -21.2°
